Latest Coastal Weather Observations for Browse Island

IDW60701

Issued at 9:05 am WST Wednesday 30 July 2014 (issued every 10 minutes, with the page automatically refreshed every 10 minutes)

About coastal observations | Map of coastal stations | Coastal observations for WA | Marine services | Other Formats
Station Details ID: 200784 Name: BROWSE ISLAND Lat: -14.11 Lon: 123.55 Height: 3.7 m
Data from the previous 72 hours. | See also: Recent months for locations in Western Australia
Date/Time
WST
Temp

°C
Wind Pressure Rain
since 9am
mm
Weather Cloud Vis
km
Sea
Height
m
Swell
Dir
 
Speed
knots
Gust
knots
hPa Trend Height
m
Period
s
Dir
30/09:00am 27.4 E 6 7 1016.2 - - - - - - - - -
30/08:30am 27.0 ESE 7 - 1016.0 - - - - - - - - -
30/08:00am 26.2 SE 7 - 1016.0 - - - - - - - - -
30/07:30am 26.0 SE 7 - 1015.0 - - - - - - - - -
30/07:00am 25.5 SSE 8 - 1015.5 - - - - - - - - -
30/06:30am 26.0 SE 7 - 1015.0 - - - - - - - - -
30/06:00am 25.5 ESE 6 - 1015.3 - - - - - - - - -
30/05:30am 25.0 ESE 6 - 1015.0 - - - - - - - - -
30/05:00am 25.4 ESE 5 - 1014.9 - - - - - - - - -
30/04:30am 26.0 ESE 6 - 1014.0 - - - - - - - - -
30/04:00am 25.4 E 6 - 1014.7 - - - - - - - - -
30/03:30am 26.0 E 6 - 1014.0 - - - - - - - - -
30/03:00am 25.6 E 7 - 1014.6 - - - - - - - - -
30/02:30am 26.0 E 7 - 1014.0 - - - - - - - - -
30/02:00am 25.6 ENE 8 - 1014.9 - - - - - - - - -
30/01:30am 26.0 E 9 - 1015.0 - - - - - - - - -
30/01:00am 25.7 E 8 - 1015.2 - - - - - - - - -
30/12:30am 26.0 E 9 - 1015.0 - - - - - - - - -
30/12:00am 25.8 E 9 10 1015.5 - - - - - - - - -
 
Date/Time
WST
Temp

°C
Wind Pressure Rain
since 9am
mm
Weather Cloud Vis
km
Sea
Height
m
Swell
Dir
 
Speed
knots
Gust
knots
hPa Trend Height
m
Period
s
Dir
29/11:30pm 26.0 E 9 - 1015.0 - - - - - - - - -
29/11:00pm 26.0 E 8 - 1015.6 - - - - - - - - -
29/10:30pm 26.0 E 10 - 1015.0 - - - - - - - - -
29/10:00pm 26.3 E 11 - 1015.6 - - - - - - - - -
29/09:30pm 26.0 E 11 - 1015.0 - - - - - - - - -
29/09:00pm 26.4 E 9 - 1015.4 - - - - - - - - -
29/08:30pm 26.0 E 8 - 1015.0 - - - - - - - - -
29/08:00pm 26.2 E 8 - 1015.2 - - - - - - - - -
29/07:30pm 26.0 E 8 - 1015.0 - - - - - - - - -
29/07:00pm 26.3 E 7 - 1014.5 - - - - - - - - -
29/06:30pm 26.0 E 7 - 1014.0 - - - - - - - - -
29/06:00pm 26.6 E 7 - 1014.0 - - - - - - - - -
29/05:30pm 27.0 E 10 - 1013.0 - - - - - - - - -
29/05:00pm 27.3 E 10 - 1013.7 - - - - - - - - -
29/04:30pm 28.0 E 11 - 1013.0 - - - - - - - - -
29/04:00pm 27.7 E 11 - 1013.1 - - - - - - - - -
29/03:30pm 28.0 E 12 - 1013.0 - - - - - - - - -
29/03:00pm 27.9 E 12 - 1013.0 - - - - - - - - -
29/02:30pm 28.0 E 13 - 1013.0 - - - - - - - - -
29/02:00pm 28.0 ESE 11 - 1013.3 - - - - - - - - -
29/01:30pm 28.0 SE 12 - 1013.0 - - - - - - - - -
29/01:00pm 27.4 SE 11 - 1013.9 - - - - - - - - -
29/12:30pm 28.0 SE 11 - 1014.0 - - - - - - - - -
29/12:00pm 27.2 ESE 11 - 1014.9 - - - - - - - - -
29/11:30am 28.0 ESE 10 - 1015.0 - - - - - - - - -
29/11:00am 27.7 ESE 11 - 1015.5 - - - - - - - - -
29/10:30am 27.0 ESE 11 - 1015.0 - - - - - - - - -
29/10:00am 27.3 SE 9 - 1015.9 - - - - - - - - -
29/09:30am 27.0 SE 8 - 1016.0 - - - - - - - - -
29/09:00am 26.7 SSE 9 - 1016.2 - - - - - - - - -
29/08:30am 27.0 SE 9 - 1016.0 - - - - - - - - -
29/08:00am 26.7 SE 9 - 1016.0 - - - - - - - - -
29/07:30am 26.0 ESE 9 - 1015.0 - - - - - - - - -
29/07:00am 26.1 ESE 8 - 1015.5 - - - - - - - - -
29/06:30am 26.0 ESE 8 - 1015.0 - - - - - - - - -
29/06:00am 26.2 SE 8 - 1014.9 - - - - - - - - -
29/05:30am 26.0 SE 8 - 1014.0 - - - - - - - - -
29/05:00am 26.2 SE 8 - 1014.6 - - - - - - - - -
29/04:30am 26.0 ESE 8 - 1014.0 - - - - - - - - -
29/04:00am 26.2 ESE 7 - 1014.6 - - - - - - - - -
29/03:30am 26.0 ESE 6 - 1014.0 - - - - - - - - -
29/03:00am 26.4 SE 6 - 1014.6 - - - - - - - - -
29/02:30am 26.0 SE 7 - 1014.0 - - - - - - - - -
29/02:00am 26.3 E 6 - 1014.6 - - - - - - - - -
29/01:30am 26.0 E 7 - 1014.0 - - - - - - - - -
29/01:00am 26.2 ESE 8 - 1015.1 - - - - - - - - -
29/12:30am 26.0 ESE 7 - 1015.0 - - - - - - - - -
29/12:00am 26.3 ESE 6 - 1015.3 - - - - - - - - -
 
Date/Time
WST
Temp

°C
Wind Pressure Rain
since 9am
mm
Weather Cloud Vis
km
Sea
Height
m
Swell
Dir
 
Speed
knots
Gust
knots
hPa Trend Height
m
Period
s
Dir
28/11:30pm 26.0 ESE 6 - 1015.0 - - - - - - - - -
28/11:00pm 26.4 ESE 7 - 1015.5 - - - - - - - - -
28/10:30pm 26.0 ESE 6 - 1015.0 - - - - - - - - -
28/10:00pm 26.3 ESE 8 - 1015.5 - - - - - - - - -
28/09:30pm 26.0 ESE 8 - 1015.0 - - - - - - - - -
28/09:00pm 26.4 E 7 - 1015.4 - - - - - - - - -
28/08:30pm 26.0 ESE 6 - 1015.0 - - - - - - - - -
28/08:00pm 26.5 SE 7 - 1015.1 - - - - - - - - -
28/07:30pm 26.0 SSE 7 - 1015.0 - - - - - - - - -
28/07:00pm 26.1 SSE 7 - 1014.5 - - - - - - - - -
28/06:30pm 26.0 S 7 - 1014.0 - - - - - - - - -
28/06:00pm 26.3 SSE 6 - 1014.0 - - - - - - - - -
28/05:30pm 26.0 SSE 6 - 1013.0 - - - - - - - - -
28/05:00pm 26.3 SE 5 - 1013.7 - - - - - - - - -
28/04:30pm 27.0 SSE 6 - 1013.0 - - - - - - - - -
28/04:00pm 26.6 SE 6 - 1013.3 - - - - - - - - -
28/03:30pm 27.0 SSE 5 - 1013.0 - - - - - - - - -
28/03:00pm 26.8 SE 6 - 1013.3 - - - - - - - - -
28/02:30pm 27.0 SE 6 - 1013.0 - - - - - - - - -
28/02:00pm 28.0 SE 7 - 1014.0 - - - - - - - - -
28/01:30pm 28.0 SE 7 - 1014.0 - - - - - - - - -
28/01:00pm 27.8 ESE 7 - 1014.6 - - - - - - - - -
28/12:30pm 27.0 SE 7 - 1015.0 - - - - - - - - -
28/12:00pm 27.1 ESE 7 - 1015.4 - - - - - - - - -
28/11:30am 28.0 ESE 7 - 1016.0 - - - - - - - - -
28/11:00am 27.7 SE 7 - 1016.2 - - - - - - - - -
28/10:30am 27.0 SE 7 - 1016.0 - - - - - - - - -
28/10:00am 27.1 ESE 7 - 1016.8 - - - - - - - - -
28/09:30am 27.0 SSE 5 - 1016.0 - - - - - - - - -
28/09:00am 27.0 SE 6 - 1016.8 - - - - - - - - -
28/08:30am 27.0 ESE 6 - 1016.0 - - - - - - - - -
28/08:00am 26.7 ESE 7 - 1016.5 - - - - - - - - -
28/07:30am 26.0 ESE 7 - 1016.0 - - - - - - - - -
28/07:00am 26.0 ESE 7 - 1016.0 - - - - - - - - -
28/06:30am 26.0 SE 8 - 1016.0 - - - - - - - - -
28/06:00am 25.8 SE 7 - 1015.8 - - - - - - - - -
28/05:30am 26.0 SSE 6 - 1015.0 - - - - - - - - -
28/05:00am 25.6 SSE 7 - 1015.4 - - - - - - - - -
28/04:30am 26.0 SSE 7 - 1015.0 - - - - - - - - -
28/04:00am 25.8 SE 7 - 1014.8 - - - - - - - - -
28/03:30am 26.0 SE 7 - 1014.0 - - - - - - - - -
28/03:00am 25.7 SE 5 - 1014.7 - - - - - - - - -
28/02:30am 26.0 SE 5 - 1014.0 - - - - - - - - -
28/02:00am 25.7 SE 4 - 1014.8 - - - - - - - - -
28/01:30am 26.0 ESE 5 - 1015.0 - - - - - - - - -
28/01:00am 25.9 ESE 5 - 1015.2 - - - - - - - - -
28/12:30am 26.0 E 6 - 1015.0 - - - - - - - - -
28/12:00am 25.8 E 7 - 1015.6 - - - - - - - - -
 
Date/Time
WST
Temp

°C
Wind Pressure Rain
since 9am
mm
Weather Cloud Vis
km
Sea
Height
m
Swell
Dir
 
Speed
knots
Gust
knots
hPa Trend Height
m
Period
s
Dir
27/11:30pm 26.0 E 6 - 1015.0 - - - - - - - - -
27/11:00pm 25.9 E 7 - 1015.9 - - - - - - - - -
27/10:30pm 26.0 E 8 - 1016.0 - - - - - - - - -
27/10:00pm 26.2 E 9 - 1016.1 - - - - - - - - -
27/09:30pm 26.0 E 8 - 1016.0 - - - - - - - - -
27/09:00pm 26.3 E 7 - 1016.1 - - - - - - - - -
27/08:30pm 26.0 E 8 - 1016.0 - - - - - - - - -
27/08:00pm 26.2 E 7 - 1015.9 - - - - - - - - -
27/07:30pm 26.0 E 8 - 1015.0 - - - - - - - - -
27/07:00pm 26.4 E 8 - 1015.3 - - - - - - - - -
27/06:30pm 26.0 ESE 9 - 1015.0 - - - - - - - - -
27/06:00pm 26.6 ESE 11 - 1015.1 - - - - - - - - -
27/05:30pm 26.0 ESE 11 - 1014.0 - - - - - - - - -
27/05:00pm 26.5 SE 10 - 1014.4 - - - - - - - - -
27/04:30pm 27.0 SSE 10 - 1014.0 - - - - - - - - -
27/04:00pm 26.8 SSE 10 - 1014.0 - - - - - - - - -
27/03:30pm 27.0 SE 11 - 1014.0 - - - - - - - - -
27/03:00pm 27.4 SE 11 - 1014.0 - - - - - - - - -
27/02:30pm 27.0 SSE 11 - 1014.0 - - - - - - - - -
27/02:00pm 27.0 SSE 11 - 1014.1 - - - - - - - - -
27/01:30pm 27.0 SE 12 - 1014.0 - - - - - - - - -
27/01:00pm 27.1 SSE 12 - 1015.0 - - - - - - - - -
27/12:30pm 27.0 SSE 11 - 1015.0 - - - - - - - - -
27/12:00pm 27.6 SSE 12 - 1015.8 - - - - - - - - -
27/11:30am 27.0 S 13 - 1016.0 - - - - - - - - -
27/11:00am 26.6 S 14 - 1016.2 - - - - - - - - -
27/10:30am 27.0 S 15 - 1016.0 - - - - - - - - -
27/10:00am 26.4 S 15 - 1016.5 - - - - - - - - -
27/09:30am 26.0 S 15 - 1016.0 - - - - - - - - -

Other Formats:

Comma delimited format used in spreadsheet applications
http://www.bom.gov.au/fwo/IDW60701/IDW60701.94103.axf

JavaScript Object Notation format (JSON) in row-major order
http://www.bom.gov.au/fwo/IDW60701/IDW60701.94103.json